Temperature
11 12 12 12 12 11 11 11 10 10 9 9 8 8 8 7 7 7 7 6 6 6 6 6 6 6 6 6 6 6 6 5 5 5 5 5 4 4 4 4 4 4 4
11 11 11 11 11 11 10 10 9 9 8 8 7 7 6 6 6 6 6 5 5 5 5 5 5 5 5 5 5 5 5 5 5 4 4 4 4 4 4 3 3 3 3
10 10 10 10 10 9 9 8 8 7 7 6 6 6 5 5 5 5 5 5 5 5 5 4 5 5 5 5 5 5 4 4 4 4 3 3 3 3 3 3 2 2 2
9 9 10 9 9 8 8 7 7 6 6 5 5 5 4 4 4 4 4 4 4 4 4 4 4 4 4 4 4 4 4 3 3 3 3 2 2 2 2 2 2 2 2
9 9 9 9 8 8 7 6 6 5 4 4 4 3 3 3 3 3 3 3 3 3 3 3 3 3 3 3 3 3 3 3 3 2 2 2 2 1 1 1 1 1 1
9 9 9 8 7 7 6 5 5 4 3 3 2 2 2 2 2 2 2 2 3 2 2 2 2 2 2 2 2 2 2 2 2 1 1 1 1 1 1 0 0 0 0
9 8 8 8 7 6 5 4 3 3 2 1 1 1 1 2 2 2 2 2 2 2 2 2 2 2 2 2 2 2 1 1 1 1 0 0 0 0 -0 -0 -0 -1 -1
8 8 8 7 6 5 4 3 2 2 1 1 1 1 1 1 1 1 1 2 2 1 1 1 1 1 1 1 1 1 1 1 0 -0 -0 -0 -1 -1 -1 -1 -1 -1 -2
8 8 8 7 6 4 4 3 2 1 1 1 1 0 0 0 1 1 1 1 1 1 1 1 1 1 1 1 1 1 0 0 -0 -1 -1 -1 -1 -1 -2 -2 -2 -2 -2
8 8 7 6 5 4 3 2 2 1 1 0 0 0 0 0 1 1 1 1 1 1 1 1 1 0 0 0 0 0 0 -0 -1 -1 -1 -1 -1 -2 -2 -2 -2 -3 -3
7 7 6 5 4 3 3 2 1 1 0 0 0 0 0 1 1 1 1 1 1 1 1 1 1 0 -0 -0 -0 -0 -1 -1 -1 -1 -1 -1 -2 -2 -2 -3 -3 -3 -3
6 6 5 5 4 3 2 2 1 1 0 0 0 1 1 1 1 1 1 1 1 1 1 0 0 -0 -0 -0 -0 -1 -1 -1 -1 -1 -2 -2 -2 -3 -3 -3 -3 -3 -4
5 5 4 4 3 3 2 2 1 1 1 1 1 1 1 1 1 1 1 1 0 0 0 0 -0 -0 -0 -0 -1 -1 -1 -1 -1 -1 -2 -2 -2 -3 -3 -3 -4 -4 -4
5 4 4 4 3 3 2 2 1 1 1 1 1 1 1 1 1 1 1 0 0 0 0 -0 -0 -0 -1 -1 -1 -1 -1 -1 -2 -2 -2 -2 -3 -3 -3 -3 -4 -4 -4
4 4 3 3 3 2 2 2 1 1 1 1 1 1 1 1 1 1 0 0 0 -0 -0 -0 -0 -0 -1 -1 -1 -1 -1 -2 -2 -2 -3 -3 -3 -3 -3 -4 -4 -4 -4
3 3 3 3 3 2 2 2 1 1 1 1 1 1 1 1 1 0 0 0 -0 -0 -0 -0 -0 -0 -1 -1 -1 -1 -2 -2 -2 -3 -3 -3 -3 -4 -4 -4 -5 -5 -5
3 3 3 2 2 2 2 2 1 1 1 1 1 1 1 1 0 -0 -0 -1 -1 -1 -1 -0 -1 -1 -1 -2 -2 -2 -2 -3 -3 -3 -3 -4 -4 -4 -4 -4 -5 -5 -5
3 2 2 2 2 2 2 1 1 1 1 1 1 1 0 0 -0 -1 -1 -1 -1 -1 -1 -1 -1 -1 -2 -2 -2 -3 -3 -3 -3 -3 -4 -4 -4 -4 -5 -5 -5 -5 -6
2 2 2 2 2 1 1 1 1 1 1 1 1 1 0 -0 -0 -1 -1 -1 -1 -1 -1 -1 -1 -2 -2 -3 -3 -3 -3 -3 -4 -4 -4 -4 -5 -5 -5 -5 -5 -6 -6
2 1 1 1 1 1 1 1 1 1 1 1 1 1 0 0 -0 -0 -1 -1 -1 -1 -1 -2 -2 -2 -3 -3 -3 -4 -4 -4 -4 -4 -5 -5 -5 -5 -6 -6 -6 -6 -7
1 1 1 1 1 1 0 0 0 0 0 0 1 0 0 0 -0 -0 -1 -1 -1 -1 -1 -2 -3 -3 -3 -3 -4 -4 -4 -4 -5 -5 -5 -5 -6 -6 -6 -6 -7 -7 -7
0 0 0 0 0 0 0 0 -0 -0 -0 -0 0 0 -0 -0 -0 -0 -1 -1 -1 -2 -2 -2 -3 -3 -4 -4 -4 -4 -5 -5 -5 -5 -6 -6 -6 -6 -7 -7 -7 -8 -8
-0 -0 -0 -0 -0 -0 -0 -0 -0 -0 -0 -0 -0 -1 -1 -1 -1 -1 -1 -1 -1 -2 -2 -3 -3 -4 -4 -4 -4 -5 -5 -5 -5 -6 -6 -6 -6 -7 -7 -7 -8 -8 -8
-1 -1 -1 -1 -1 -1 -1 -1 -1 -1 -1 -1 -1 -1 -1 -1 -1 -2 -2 -2 -2 -3 -3 -4 -4 -4 -4 -5 -5 -5 -5 -5 -6 -6 -6 -7 -7 -7 -7 -8 -8 -8 -9
-2 -2 -2 -2 -2 -1 -1 -1 -1 -1 -1 -1 -1 -2 -2 -2 -2 -2 -2 -3 -3 -3 -4 -4 -4 -5 -5 -5 -5 -5 -6 -6 -6 -6 -7 -7 -7 -7 -8 -8 -8 -9 -9
-2 -2 -2 -2 -2 -2 -2 -2 -2 -2 -2 -2 -2 -2 -3 -3 -3 -3 -3 -4 -4 -4 -4 -5 -5 -5 -5 -5 -5 -6 -6 -6 -6 -7 -7 -7 -7 -8 -8 -8 -9 -9 -9
Wind_Speed
8 8 7 7 6 5 4 4 4 4 3 3 3 3 3 3 2 2 2 2 3 4 4 4 4 4 3 3 3 3 3 2 1 1 2 3 4 5 7 8 9 9 10
7 7 7 7 6 5 5 5 4 4 4 3 2 3 3 3 3 3 3 3 4 4 4 4 4 3 4 3 3 4 3 3 1 0 2 3 4 4 4 4 6 7 8
7 7 7 7 6 5 5 5 4 4 4 3 3 3 3 3 3 3 3 5 5 5 5 5 5 5 5 4 4 4 3 3 2 2 1 2 2 2 3 3 3 5 7
8 7 7 6 6 6 6 5 4 4 4 4 4 4 3 3 3 3 4 5 6 6 7 7 7 6 5 4 4 4 4 3 3 3 2 1 1 2 3 3 3 4 3
8 7 7 7 7 6 6 5 4 3 4 4 4 3 3 3 3 3 3 5 6 6 6 6 6 7 8 6 5 5 4 3 3 2 1 1 2 3 3 3 3 3 2
8 8 7 7 7 6 5 5 5 4 4 3 3 3 4 3 5 5 4 5 5 6 5 4 4 5 6 8 8 8 7 4 3 2 1 2 2 2 2 3 3 3 3
8 8 8 8 7 7 6 6 5 4 4 4 3 4 6 6 6 6 6 6 6 5 4 3 2 3 4 3 4 5 6 7 6 3 2 2 2 2 2 3 3 2 2
9 9 9 8 8 7 7 6 5 4 4 4 4 5 6 6 7 6 7 6 5 4 3 2 2 2 2 2 3 3 2 3 3 4 3 3 3 2 2 2 2 3 4
9 9 9 9 9 8 7 7 5 4 4 4 4 4 5 5 6 6 6 4 3 3 2 1 1 2 2 2 2 1 1 1 2 2 1 1 2 3 3 3 3 3 3
9 9 9 9 9 9 8 6 5 5 5 5 4 3 4 4 6 6 5 2 3 3 3 3 2 2 0 1 1 1 1 1 1 0 2 2 2 2 1 1 1 1 1
8 8 8 8 8 8 7 6 7 6 6 5 5 4 4 5 7 7 7 3 3 3 2 2 3 3 2 2 2 1 1 0 1 2 2 2 2 1 1 2 2 3 2
8 8 8 8 8 7 8 7 7 7 7 6 5 5 5 6 7 8 9 7 5 3 2 2 3 5 3 4 3 3 3 2 1 2 2 2 1 1 1 0 1 3 4
9 8 8 8 7 8 8 9 8 7 6 6 5 5 5 5 6 11 11 10 9 4 3 4 5 5 5 4 6 6 4 2 2 3 3 3 2 3 2 1 4 6 8
9 8 8 8 8 8 7 7 7 7 7 6 6 6 5 5 5 5 5 6 8 6 4 5 7 7 6 6 6 5 3 4 3 3 3 2 2 2 2 3 3 2 3
8 8 8 8 8 7 7 7 7 7 8 8 6 6 6 6 8 11 8 6 5 6 4 3 3 3 4 4 4 5 5 4 4 3 3 3 3 3 3 3 3 2 3
8 8 7 7 7 6 6 6 9 9 12 12 10 8 7 8 8 11 13 12 12 11 7 4 5 5 6 5 5 4 4 5 5 4 4 4 4 4 4 3 3 4 5
8 8 7 7 7 7 6 7 6 8 13 14 14 14 13 10 10 10 10 12 12 12 7 5 6 6 6 5 5 5 5 5 5 5 5 5 5 5 5 5 5 5 6
8 9 8 7 7 7 7 7 6 6 6 6 11 17 17 16 15 13 13 10 8 8 7 7 7 7 6 6 6 6 5 5 5 5 5 5 5 5 6 6 6 6 7
7 6 7 7 7 7 7 7 7 7 7 6 5 8 15 16 17 17 14 8 8 8 8 8 8 7 7 6 6 6 6 6 6 5 6 6 6 6 7 7 7 10 9
6 8 8 6 6 7 7 7 7 8 8 7 8 7 6 7 8 9 10 9 9 9 9 8 8 8 7 7 6 6 6 6 7 7 7 6 6 6 8 8 8 8 8
4 5 9 6 6 7 7 8 7 7 7 8 8 7 10 8 9 9 9 9 10 10 9 8 7 7 7 7 6 7 8 7 7 7 7 7 7 7 7 8 8 9 9
3 4 4 5 5 6 6 6 7 7 8 8 7 7 13 9 8 8 8 9 8 7 7 7 7 7 7 7 7 8 8 8 8 7 8 7 7 8 8 8 8 8 9
3 3 4 4 4 7 7 6 6 7 7 7 6 6 6 7 8 8 8 7 6 6 6 6 6 6 7 9 10 8 8 9 8 8 8 8 8 8 8 9 10 10 10
2 3 3 3 3 4 4 5 5 6 6 6 6 6 6 7 7 7 7 6 6 6 6 6 7 8 9 10 11 13 14 14 13 11 9 9 9 8 8 9 10 11 11
2 2 2 3 3 3 4 4 4 5 5 5 5 5 5 6 6 6 5 5 6 6 7 7 8 9 11 13 13 14 16 17 16 14 12 9 10 10 10 10 11 11 12
2 2 2 2 2 2 3 3 3 4 4 4 4 5 5 5 5 5 5 5 5 6 6 6 9 11 12 13 15 16 17 18 18 18 14 9 10 10 10 11 12 13 13
Wind_Direction
133 127 124 118 115 117 117 111 106 101 91 76 69 65 57 43 29 51 57 47 75 68 55 64 59 50 49 30 22 28 32 27 242 82 75 50 49 34 18 25 30 31 26
135 133 129 121 122 125 120 109 101 98 90 80 71 75 71 53 32 51 73 65 76 77 69 71 63 66 63 45 41 43 38 30 32 81 59 44 43 29 11 17 29 30 25
133 132 127 130 134 133 120 110 105 103 102 95 85 85 80 68 54 59 84 86 78 71 65 65 54 60 59 47 48 43 29 31 43 74 65 50 39 18 10 13 32 27 19
143 143 142 143 138 127 116 111 108 109 113 106 95 91 89 86 80 76 92 96 89 78 68 62 55 57 54 45 49 31 26 37 52 69 76 64 42 6 33 13 4 7 2
150 149 146 134 123 118 119 118 110 106 107 106 109 110 106 100 89 87 95 108 106 94 81 74 66 66 64 60 60 38 35 46 55 62 70 60 43 28 19 359 352 340 5
156 155 143 135 134 136 138 134 129 123 118 123 127 124 112 102 102 95 102 98 102 102 97 88 85 65 66 65 66 60 56 59 55 39 49 67 51 28 16 5 3 9 340
161 155 149 148 151 153 151 144 146 146 139 136 133 122 112 114 119 108 103 102 99 101 102 97 98 89 64 48 60 66 59 57 54 60 66 59 56 32 29 7 9 357 293
163 159 156 156 157 155 153 154 153 146 145 142 130 120 120 128 126 121 115 107 111 115 114 112 109 109 84 63 58 54 58 69 58 59 73 59 61 40 27 346 313 322 300
169 167 163 161 160 160 163 160 151 145 143 137 129 127 130 140 145 142 133 128 137 154 167 154 114 110 99 71 47 345 326 203 140 114 72 6 347 349 360 24 15 23 344
173 165 159 159 162 166 165 158 149 149 151 146 141 140 145 162 175 176 167 160 169 188 197 193 172 152 143 8 9 347 4 22 53 335 294 283 266 275 351 92 119 112 320
157 152 154 157 160 159 157 155 153 154 158 164 167 179 186 199 201 197 197 187 193 192 188 194 194 192 227 275 282 275 252 322 335 296 282 273 250 218 170 114 113 147 185
149 151 154 155 159 160 157 160 163 165 171 179 187 200 209 210 213 212 213 215 212 192 199 195 192 197 226 258 261 260 272 296 293 287 279 274 247 205 175 171 269 258 237
151 156 158 160 162 164 168 171 174 179 185 190 195 205 210 203 211 220 222 223 225 212 205 210 209 219 237 257 258 255 261 258 257 263 265 259 227 203 198 262 277 270 267
164 166 167 170 171 174 178 180 184 189 193 196 201 207 209 205 203 205 211 226 230 231 227 233 237 242 241 244 253 254 234 228 231 238 255 256 234 214 228 233 251 274 288
172 173 174 178 178 183 189 194 194 199 198 198 203 200 201 214 217 207 196 202 200 208 197 198 208 222 227 231 232 230 223 228 239 231 242 254 255 252 249 236 232 234 253
181 181 180 182 184 186 189 202 214 211 217 217 211 205 213 219 219 215 214 214 215 216 210 208 221 224 227 228 228 225 220 222 221 219 224 233 244 251 258 254 241 241 256
192 187 183 186 189 192 194 200 214 223 228 230 229 229 228 227 227 223 221 221 223 222 223 220 224 226 227 224 221 220 225 225 216 215 220 227 235 243 249 255 254 255 260
200 196 193 195 197 199 203 205 207 210 216 230 231 232 233 232 230 227 224 221 227 226 222 225 227 226 224 222 220 222 225 224 219 220 223 227 230 237 247 252 252 253 262
208 205 202 200 199 202 202 204 210 215 224 227 216 226 229 231 231 229 223 218 220 224 225 226 226 224 222 220 220 219 219 222 222 221 226 229 230 235 246 251 253 261 264
219 214 206 204 200 202 204 207 213 218 223 227 229 224 202 205 218 222 219 218 222 227 226 225 224 222 220 219 218 218 222 225 226 229 232 232 231 233 244 248 251 255 258
227 219 212 212 210 208 208 212 215 217 222 229 233 224 209 208 219 222 222 222 224 227 226 225 223 219 218 215 216 220 224 230 228 230 233 233 231 237 242 247 251 253 257
236 226 218 219 217 216 217 214 215 219 224 230 235 231 230 223 224 228 229 230 228 225 219 219 222 220 216 214 215 220 226 231 231 230 233 233 233 238 243 246 248 251 254
247 238 229 226 222 229 229 221 219 223 227 229 228 223 223 226 230 231 233 231 225 222 218 216 223 225 222 220 218 217 225 232 230 226 229 233 235 239 241 244 246 250 254
264 247 239 235 231 230 231 228 225 227 229 229 228 227 227 230 234 236 232 226 222 222 219 219 223 228 229 229 230 230 233 236 234 230 225 232 238 243 243 246 249 252 256
274 263 252 246 242 240 240 237 233 232 232 231 231 232 232 232 235 235 229 223 221 224 224 222 227 232 236 237 237 237 241 245 243 236 229 230 238 241 244 248 252 255 255
277 270 262 253 249 247 244 242 241 238 238 237 233 232 232 234 235 233 228 224 226 228 229 227 231 236 240 243 246 248 251 253 252 249 240 237 239 244 244 249 251 253 257
Height
1497 1500 1502 1504 1506 1508 1509 1509 1509 1509 1509 1509 1509 1509 1508 1508 1508 1508 1507 1507 1506 1506 1506 1506 1506 1506 1506 1506 1506 1506 1506 1507 1507 1507 1507 1506 1505 1504 1502 1501 1500 1499 1498
1494 1496 1499 1501 1502 1503 1504 1504 1504 1504 1504 1504 1504 1504 1504 1504 1504 1504 1503 1503 1503 1502 1502 1502 1502 1502 1502 1502 1502 1502 1502 1503 1503 1503 1502 1502 1501 1500 1499 1498 1497 1496 1496
1491 1493 1495 1497 1498 1499 1499 1500 1500 1500 1499 1500 1499 1499 1499 1499 1499 1500 1500 1499 1499 1499 1499 1499 1499 1499 1499 1499 1499 1499 1499 1499 1499 1499 1499 1498 1498 1497 1496 1496 1495 1494 1494
1488 1490 1492 1493 1494 1495 1495 1495 1495 1495 1495 1495 1495 1495 1495 1495 1495 1496 1496 1496 1496 1496 1496 1496 1496 1496 1497 1497 1496 1496 1496 1496 1496 1495 1495 1495 1494 1494 1493 1493 1492 1492 1491
1485 1487 1488 1489 1490 1491 1491 1491 1491 1491 1491 1491 1491 1491 1491 1491 1492 1492 1493 1493 1493 1493 1494 1494 1494 1494 1494 1494 1494 1493 1493 1493 1492 1492 1492 1492 1491 1491 1490 1490 1489 1489 1488
1482 1483 1484 1485 1486 1487 1487 1487 1487 1487 1487 1487 1487 1487 1488 1488 1489 1490 1490 1491 1491 1491 1491 1491 1491 1491 1491 1491 1491 1491 1491 1490 1490 1490 1489 1489 1489 1488 1488 1487 1487 1486 1486
1478 1479 1480 1481 1482 1482 1482 1482 1483 1483 1483 1484 1484 1485 1485 1486 1487 1487 1488 1488 1489 1489 1489 1489 1489 1489 1489 1489 1488 1488 1488 1488 1488 1488 1487 1487 1487 1486 1485 1485 1484 1484 1483
1473 1475 1476 1477 1477 1478 1478 1478 1479 1480 1480 1481 1482 1483 1483 1484 1484 1485 1486 1486 1487 1487 1487 1487 1487 1487 1487 1486 1486 1486 1486 1485 1485 1485 1485 1485 1484 1484 1483 1483 1482 1482 1481
1469 1470 1471 1472 1473 1474 1474 1475 1475 1477 1478 1479 1480 1481 1481 1482 1482 1483 1484 1484 1485 1485 1485 1485 1485 1485 1485 1484 1484 1484 1483 1483 1483 1483 1483 1483 1482 1482 1481 1481 1480 1480 1479
1464 1466 1467 1468 1469 1470 1471 1471 1472 1474 1475 1476 1477 1478 1479 1480 1481 1482 1482 1483 1483 1483 1483 1483 1483 1483 1483 1482 1482 1482 1482 1481 1481 1481 1481 1481 1480 1480 1479 1479 1478 1477 1477
1460 1462 1463 1464 1465 1466 1467 1468 1469 1471 1472 1474 1475 1476 1477 1478 1479 1480 1480 1481 1481 1481 1481 1481 1481 1481 1481 1481 1480 1480 1480 1480 1479 1479 1479 1478 1478 1477 1477 1477 1476 1475 1475
1456 1458 1459 1460 1461 1462 1464 1465 1466 1468 1469 1471 1472 1473 1474 1476 1477 1478 1478 1479 1479 1479 1479 1479 1479 1479 1479 1478 1478 1478 1478 1477 1477 1477 1476 1476 1475 1475 1475 1474 1473 1473 1472
1453 1454 1456 1457 1458 1459 1461 1462 1463 1465 1466 1467 1469 1470 1472 1473 1474 1475 1476 1476 1476 1476 1476 1476 1476 1476 1476 1476 1476 1475 1475 1475 1474 1474 1474 1473 1473 1472 1472 1471 1470 1469 1469
1449 1451 1452 1453 1455 1456 1457 1459 1460 1461 1463 1464 1466 1467 1469 1470 1471 1472 1473 1473 1474 1474 1474 1474 1474 1473 1473 1473 1473 1472 1472 1472 1471 1471 1470 1470 1469 1469 1468 1467 1466 1465 1464
1446 1447 1449 1450 1451 1452 1454 1455 1457 1458 1460 1462 1463 1465 1466 1467 1468 1469 1469 1470 1470 1471 1470 1470 1470 1470 1470 1470 1469 1469 1469 1468 1468 1467 1467 1466 1466 1465 1464 1463 1462 1461 1459
1443 1444 1445 1446 1448 1449 1450 1452 1453 1455 1456 1458 1459 1461 1462 1463 1464 1465 1466 1466 1466 1466 1466 1466 1466 1466 1466 1466 1465 1465 1465 1464 1464 1463 1463 1462 1461 1460 1459 1458 1457 1456 1454
1439 1440 1441 1442 1444 1445 1446 1448 1449 1451 1452 1454 1455 1456 1458 1459 1460 1461 1461 1462 1462 1462 1462 1461 1461 1461 1461 1461 1461 1460 1460 1460 1459 1458 1458 1457 1456 1455 1454 1453 1452 1450 1449
1435 1435 1437 1438 1439 1440 1442 1443 1445 1446 1447 1448 1450 1451 1453 1454 1455 1455 1456 1456 1456 1456 1456 1456 1456 1456 1456 1456 1455 1455 1455 1455 1454 1453 1453 1452 1451 1450 1449 1447 1446 1445 1443
1430 1431 1432 1433 1434 1436 1437 1438 1439 1440 1442 1443 1444 1446 1447 1448 1449 1449 1450 1450 1450 1450 1450 1450 1451 1450 1450 1450 1450 1449 1449 1448 1448 1447 1447 1446 1445 1444 1443 1441 1440 1439 1437
1425 1426 1427 1428 1429 1430 1432 1433 1434 1435 1436 1437 1438 1439 1441 1441 1441 1442 1443 1443 1443 1443 1443 1444 1444 1444 1444 1443 1443 1443 1442 1442 1441 1441 1440 1440 1439 1438 1436 1435 1434 1432 1431
1420 1421 1422 1423 1424 1425 1426 1427 1428 1429 1430 1431 1432 1433 1433 1434 1434 1435 1435 1436 1436 1436 1436 1436 1436 1436 1436 1436 1436 1436 1435 1435 1435 1434 1434 1433 1432 1431 1429 1428 1427 1425 1424
1415 1416 1417 1417 1418 1419 1420 1421 1422 1423 1424 1424 1425 1426 1426 1426 1427 1427 1427 1428 1428 1428 1429 1429 1429 1429 1429 1429 1429 1428 1428 1428 1428 1427 1426 1426 1425 1423 1422 1421 1420 1418 1417
1411 1411 1412 1412 1413 1414 1415 1415 1416 1417 1417 1418 1418 1419 1419 1419 1419 1419 1420 1420 1420 1420 1421 1421 1421 1421 1422 1422 1421 1421 1421 1421 1421 1420 1419 1418 1417 1416 1415 1414 1412 1411 1409
1406 1407 1407 1408 1408 1409 1409 1410 1410 1411 1411 1412 1412 1412 1412 1412 1412 1412 1412 1413 1413 1413 1413 1413 1413 1414 1414 1414 1414 1414 1414 1413 1413 1412 1412 1411 1410 1409 1407 1406 1404 1403 1401
1402 1402 1403 1403 1404 1404 1404 1405 1405 1405 1405 1405 1405 1405 1405 1405 1405 1405 1405 1405 1405 1406 1406 1406 1407 1407 1407 1407 1407 1407 1407 1406 1405 1405 1404 1403 1402 1401 1399 1398 1396 1395 1393
1399 1399 1399 1399 1399 1399 1400 1400 1400 1400 1400 1400 1399 1399 1399 1399 1399 1399 1399 1399 1399 1399 1400 1400 1400 1400 1400 1400 1400 1400 1399 1399 1398 1397 1396 1395 1394 1392 1391 1390 1388 1387 1385